CEB822 RPUV-RPLL

Flight info

Callsign CEB822
Flight time 0h 50m
Altitude 24000
Route NGA W9 AKDAP AKDAP5R
Aircraft A320/M-SDE3FGHIRWY/LB1

Departure

Time 2026-05-01 14:32
Airport Virac Airport (RPUV)

Arrival

Time 2026-05-01 15:22
Airport Ninoy Aquino International Airport (RPLL)
Time Latitude Longitude Altitude Speed Heading
2026-05-01 14:12 13.57970 124.21219 162 ft 0 kts 181°
2026-05-01 14:24 13.57966 124.21219 162 ft 1 kts 184°
2026-05-01 14:24 13.57964 124.21215 162 ft 0 kts 257°
2026-05-01 14:24 13.57968 124.21200 162 ft 3 kts 284°
2026-05-01 14:25 13.57974 124.21171 162 ft 4 kts 273°
2026-05-01 14:25 13.57969 124.21130 162 ft 6 kts 270°
2026-05-01 14:25 13.57990 124.21085 162 ft 7 kts 308°
2026-05-01 14:25 13.57998 124.21035 162 ft 8 kts 241°
2026-05-01 14:26 13.57969 124.20979 162 ft 9 kts 241°
2026-05-01 14:26 13.57912 124.20875 162 ft 11 kts 239°
2026-05-01 14:26 13.57872 124.20805 162 ft 12 kts 239°
2026-05-01 14:27 13.57828 124.20725 162 ft 13 kts 242°
2026-05-01 14:27 13.57782 124.20638 162 ft 14 kts 240°
2026-05-01 14:27 13.57731 124.20548 162 ft 14 kts 239°
2026-05-01 14:28 13.57624 124.20354 161 ft 16 kts 240°
2026-05-01 14:28 13.57600 124.20311 161 ft 16 kts 240°
2026-05-01 14:28 13.57544 124.20209 161 ft 16 kts 241°
2026-05-01 14:28 13.57485 124.20099 161 ft 17 kts 241°
2026-05-01 14:29 13.57425 124.19992 161 ft 16 kts 240°
2026-05-01 14:29 13.57369 124.19890 161 ft 15 kts 241°
2026-05-01 14:30 13.57309 124.19805 161 ft 1 kts 329°
2026-05-01 14:30 13.57323 124.19811 161 ft 3 kts 41°
2026-05-01 14:30 13.57338 124.19833 161 ft 4 kts 61°
2026-05-01 14:31 13.57376 124.19904 161 ft 6 kts 60°
2026-05-01 14:31 13.57425 124.19990 161 ft 38 kts 60°
2026-05-01 14:31 13.57678 124.20448 162 ft 106 kts 62°
2026-05-01 14:31 13.58123 124.21253 363 ft 138 kts 59°
2026-05-01 14:32 13.58516 124.22120 938 ft 135 kts 77°
2026-05-01 14:32 13.58462 124.23077 1525 ft 136 kts 103°
2026-05-01 14:32 13.58050 124.23937 2000 ft 141 kts 130°
2026-05-01 14:32 13.57243 124.24606 2262 ft 154 kts 131°
2026-05-01 14:33 13.56623 124.25515 2535 ft 162 kts 118°
2026-05-01 14:33 13.55741 124.26347 2779 ft 186 kts 155°
2026-05-01 14:33 13.54404 124.26445 3063 ft 208 kts 192°
2026-05-01 14:33 13.52992 124.25856 3413 ft 225 kts 205°
2026-05-01 14:34 13.51506 124.25085 3663 ft 249 kts 206°
2026-05-01 14:34 13.49915 124.24225 4078 ft 267 kts 207°
2026-05-01 14:34 13.48229 124.23299 4542 ft 283 kts 207°
2026-05-01 14:34 13.46481 124.22335 5240 ft 288 kts 207°
2026-05-01 14:35 13.44730 124.21314 6026 ft 291 kts 216°
2026-05-01 14:35 13.43441 124.19705 6780 ft 294 kts 249°
2026-05-01 14:35 13.43169 124.17670 7561 ft 292 kts 280°
2026-05-01 14:35 13.43594 124.15647 8339 ft 293 kts 287°
2026-05-01 14:36 13.44120 124.13638 9081 ft 295 kts 287°
2026-05-01 14:36 13.44599 124.11623 10049 ft 288 kts 285°
2026-05-01 14:36 13.45013 124.09647 11092 ft 276 kts 284°
2026-05-01 14:36 13.45372 124.07762 12008 ft 269 kts 283°
2026-05-01 14:37 13.45707 124.05883 12730 ft 269 kts 282°
2026-05-01 14:37 13.46033 124.03980 13377 ft 272 kts 282°
2026-05-01 14:37 13.46351 124.02058 14003 ft 275 kts 282°
2026-05-01 14:37 13.46665 124.00135 14612 ft 278 kts 282°
2026-05-01 14:38 13.46976 123.98216 15229 ft 280 kts 282°
2026-05-01 14:38 13.47293 123.96252 15850 ft 283 kts 281°
2026-05-01 14:38 13.47613 123.94252 16463 ft 285 kts 281°
2026-05-01 14:38 13.47938 123.92220 17065 ft 288 kts 281°
2026-05-01 14:39 13.48260 123.90196 17652 ft 290 kts 281°
2026-05-01 14:39 13.48590 123.88130 18237 ft 293 kts 281°
2026-05-01 14:39 13.48918 123.86071 18805 ft 295 kts 281°
2026-05-01 14:39 13.49252 123.83970 19368 ft 298 kts 281°
2026-05-01 14:40 13.49585 123.81873 19914 ft 300 kts 281°
2026-05-01 14:40 13.49924 123.79736 20442 ft 303 kts 281°
2026-05-01 14:40 13.50263 123.77604 20936 ft 307 kts 281°
2026-05-01 14:40 13.50608 123.75430 21455 ft 310 kts 281°
2026-05-01 14:41 13.50956 123.73235 21966 ft 313 kts 281°
2026-05-01 14:41 13.51305 123.71034 22465 ft 316 kts 281°
2026-05-01 14:41 13.51660 123.68795 22959 ft 319 kts 281°
2026-05-01 14:41 13.52014 123.66556 23441 ft 322 kts 281°
2026-05-01 14:42 13.52377 123.64269 23842 ft 328 kts 281°
2026-05-01 14:42 13.52748 123.61928 23938 ft 344 kts 281°
2026-05-01 14:42 13.53146 123.59425 23947 ft 362 kts 281°
2026-05-01 14:42 13.53557 123.56834 23951 ft 379 kts 281°
2026-05-01 14:43 13.53990 123.54095 23954 ft 395 kts 281°
2026-05-01 14:43 13.54434 123.51275 23954 ft 401 kts 281°
2026-05-01 14:43 13.54878 123.48451 23956 ft 403 kts 281°
2026-05-01 14:43 13.55324 123.45603 23955 ft 403 kts 281°
2026-05-01 14:44 13.55772 123.42745 23951 ft 403 kts 281°
2026-05-01 14:44 13.56661 123.37054 23941 ft 403 kts 281°
2026-05-01 14:44 13.57106 123.34207 23935 ft 403 kts 280°
2026-05-01 14:45 13.57556 123.31325 23933 ft 403 kts 280°
2026-05-01 14:45 13.58947 123.25716 23925 ft 416 kts 292°
2026-05-01 14:45 13.60130 123.22944 23923 ft 429 kts 297°
2026-05-01 14:46 13.61461 123.20152 23919 ft 441 kts 298°
2026-05-01 14:46 13.64273 123.14341 23915 ft 463 kts 297°
2026-05-01 14:46 13.65711 123.11352 23914 ft 472 kts 297°
2026-05-01 14:47 13.67179 123.08290 23914 ft 480 kts 297°
2026-05-01 14:47 13.68650 123.05212 23915 ft 487 kts 297°
2026-05-01 14:47 13.70173 123.02018 23915 ft 491 kts 297°
2026-05-01 14:48 13.73175 122.95715 23919 ft 492 kts 297°
2026-05-01 14:48 13.74690 122.92530 23920 ft 492 kts 297°
2026-05-01 14:48 13.77707 122.86181 23921 ft 492 kts 297°
2026-05-01 14:49 13.80710 122.79856 23925 ft 492 kts 297°
2026-05-01 14:49 13.83726 122.73525 23933 ft 492 kts 297°
2026-05-01 14:50 13.85732 122.69316 23936 ft 492 kts 297°
2026-05-01 14:50 13.89777 122.60804 23939 ft 492 kts 297°
2026-05-01 14:51 13.91277 122.57642 23938 ft 492 kts 297°
2026-05-01 14:51 13.94284 122.51297 23933 ft 492 kts 297°
2026-05-01 14:52 13.97283 122.44963 23927 ft 492 kts 297°
2026-05-01 14:52 13.98786 122.41787 23926 ft 492 kts 297°
2026-05-01 14:52 14.01779 122.35456 23922 ft 492 kts 297°
2026-05-01 14:53 14.03268 122.32301 23918 ft 488 kts 297°
2026-05-01 14:53 14.04718 122.29225 23855 ft 471 kts 297°
2026-05-01 14:53 14.06128 122.26232 23604 ft 455 kts 297°
2026-05-01 14:53 14.07482 122.23358 23354 ft 440 kts 297°
2026-05-01 14:54 14.08814 122.20529 23098 ft 425 kts 297°
2026-05-01 14:54 14.10086 122.17829 22845 ft 413 kts 297°
2026-05-01 14:54 14.11333 122.15181 22590 ft 400 kts 297°
2026-05-01 14:54 14.12541 122.12616 22332 ft 391 kts 297°
2026-05-01 14:55 14.13723 122.10108 22074 ft 389 kts 297°
2026-05-01 14:55 14.14905 122.07597 21776 ft 388 kts 297°
2026-05-01 14:55 14.16077 122.05107 21390 ft 385 kts 297°
2026-05-01 14:55 14.17256 122.02602 20959 ft 383 kts 297°
2026-05-01 14:56 14.18400 122.00166 20522 ft 380 kts 297°
2026-05-01 14:56 14.19551 121.97717 20196 ft 376 kts 297°
2026-05-01 14:56 14.20688 121.95299 20061 ft 372 kts 297°
2026-05-01 14:56 14.21782 121.92947 19930 ft 360 kts 296°
2026-05-01 14:57 14.22725 121.90488 19738 ft 371 kts 291°
2026-05-01 14:57 14.24355 121.85452 19192 ft 366 kts 289°
2026-05-01 14:57 14.25143 121.82952 18866 ft 360 kts 289°
2026-05-01 14:58 14.25899 121.80560 18590 ft 351 kts 290°
2026-05-01 14:58 14.26656 121.78178 18339 ft 342 kts 290°
2026-05-01 14:58 14.27392 121.75874 18090 ft 335 kts 290°
2026-05-01 14:58 14.28110 121.73628 17843 ft 328 kts 290°
2026-05-01 14:59 14.28822 121.71403 17594 ft 322 kts 290°
2026-05-01 14:59 14.29523 121.69214 17350 ft 323 kts 290°
2026-05-01 14:59 14.30241 121.66973 17108 ft 330 kts 290°
2026-05-01 14:59 14.30959 121.64726 16864 ft 331 kts 290°
2026-05-01 15:00 14.32158 121.60969 16456 ft 329 kts 290°
2026-05-01 15:00 14.33112 121.57978 16131 ft 328 kts 290°
2026-05-01 15:00 14.33817 121.55764 15890 ft 327 kts 290°
2026-05-01 15:01 14.34532 121.53514 15654 ft 326 kts 290°
2026-05-01 15:01 14.35238 121.51296 15429 ft 325 kts 290°
2026-05-01 15:01 14.35937 121.49095 15211 ft 323 kts 290°
2026-05-01 15:01 14.36635 121.46903 14922 ft 323 kts 290°
2026-05-01 15:02 14.37335 121.44702 14569 ft 321 kts 290°
2026-05-01 15:02 14.37567 121.43971 14445 ft 320 kts 290°
2026-05-01 15:02 14.38062 121.40196 13827 ft 320 kts 270°
2026-05-01 15:02 14.37952 121.37915 13464 ft 319 kts 268°
2026-05-01 15:03 14.37806 121.35644 13099 ft 316 kts 268°
2026-05-01 15:03 14.37653 121.33373 12731 ft 315 kts 267°
2026-05-01 15:03 14.37500 121.31122 12391 ft 312 kts 267°
2026-05-01 15:03 14.37349 121.28931 12219 ft 303 kts 267°
2026-05-01 15:04 14.37201 121.26789 12054 ft 294 kts 267°
2026-05-01 15:04 14.37057 121.24736 11884 ft 285 kts 267°
2026-05-01 15:04 14.36915 121.22733 11725 ft 277 kts 267°
2026-05-01 15:04 14.36775 121.20786 11571 ft 268 kts 267°
2026-05-01 15:05 14.36639 121.18893 11355 ft 263 kts 267°
2026-05-01 15:05 14.36504 121.17014 11066 ft 261 kts 267°
2026-05-01 15:05 14.36368 121.15146 10764 ft 260 kts 267°
2026-05-01 15:05 14.36233 121.13287 10448 ft 259 kts 267°
2026-05-01 15:06 14.36099 121.11443 10116 ft 260 kts 267°
2026-05-01 15:06 14.35964 121.09567 9646 ft 266 kts 267°
2026-05-01 15:06 14.35827 121.07655 9304 ft 267 kts 267°
2026-05-01 15:06 14.35690 121.05749 9008 ft 266 kts 267°
2026-05-01 15:07 14.35554 121.03860 8712 ft 264 kts 267°
2026-05-01 15:07 14.35416 121.01948 8411 ft 263 kts 267°
2026-05-01 15:07 14.35288 121.00078 8098 ft 262 kts 270°
2026-05-01 15:07 14.35343 120.98212 7797 ft 260 kts 276°
2026-05-01 15:08 14.35491 120.96353 7499 ft 258 kts 277°
2026-05-01 15:08 14.35655 120.94511 7184 ft 258 kts 277°
2026-05-01 15:08 14.35902 120.92708 6874 ft 254 kts 289°
2026-05-01 15:08 14.36507 120.91016 6563 ft 251 kts 296°
2026-05-01 15:09 14.37215 120.89370 6233 ft 249 kts 297°
2026-05-01 15:09 14.37932 120.87754 6001 ft 247 kts 297°
2026-05-01 15:09 14.38764 120.86181 5981 ft 247 kts 305°
2026-05-01 15:09 14.39710 120.84706 5978 ft 248 kts 307°
2026-05-01 15:10 14.40693 120.83233 5976 ft 247 kts 311°
2026-05-01 15:10 14.43255 120.80925 5974 ft 243 kts 327°
2026-05-01 15:10 14.44636 120.79896 5972 ft 243 kts 327°
2026-05-01 15:11 14.46023 120.78873 5972 ft 243 kts 327°
2026-05-01 15:11 14.48778 120.76844 5970 ft 243 kts 327°
2026-05-01 15:11 14.50178 120.75816 5969 ft 243 kts 327°
2026-05-01 15:12 14.51549 120.74806 5964 ft 241 kts 327°
2026-05-01 15:12 14.54417 120.73058 5378 ft 238 kts 337°
2026-05-01 15:12 14.55919 120.72344 5062 ft 236 kts 345°
2026-05-01 15:13 14.60745 120.71656 4143 ft 230 kts 357°
2026-05-01 15:14 14.63911 120.71369 3508 ft 227 kts 359°
2026-05-01 15:14 14.65465 120.71564 3159 ft 223 kts 26°
2026-05-01 15:14 14.68058 120.73297 2975 ft 221 kts 37°
2026-05-01 15:15 14.69679 120.75826 2963 ft 225 kts 91°
2026-05-01 15:15 14.68943 120.78960 2824 ft 217 kts 102°
2026-05-01 15:16 14.68004 120.81750 2703 ft 197 kts 118°
2026-05-01 15:16 14.66391 120.83765 2659 ft 164 kts 128°
2026-05-01 15:17 14.64946 120.85425 2659 ft 153 kts 127°
2026-05-01 15:18 14.63297 120.87380 2667 ft 153 kts 126°
2026-05-01 15:19 14.60100 120.91161 2233 ft 140 kts 126°
2026-05-01 15:19 14.58822 120.92677 1941 ft 138 kts 126°
2026-05-01 15:19 14.58186 120.93430 1769 ft 138 kts 125°
2026-05-01 15:20 14.56922 120.94923 1408 ft 137 kts 125°
2026-05-01 15:20 14.56296 120.95665 1227 ft 137 kts 125°
2026-05-01 15:20 14.55668 120.96410 1046 ft 136 kts 125°
2026-05-01 15:21 14.55045 120.97149 943 ft 137 kts 124°
2026-05-01 15:21 14.54444 120.97914 717 ft 136 kts 123°
2026-05-01 15:21 14.53863 120.98679 499 ft 135 kts 123°
2026-05-01 15:21 14.53250 120.99425 313 ft 135 kts 126°
2026-05-01 15:22 14.51952 121.00823 83 ft 128 kts 129°
2026-05-01 15:22 14.51498 121.01303 82 ft 50 kts 135°
2026-05-01 15:22 14.51378 121.01424 82 ft 11 kts 135°
2026-05-01 15:23 14.51357 121.01446 82 ft 1 kts 132°
2026-05-01 15:23 14.51346 121.01459 82 ft 2 kts 130°
2026-05-01 15:23 14.51335 121.01480 82 ft 3 kts 98°
2026-05-01 15:23 14.51346 121.01508 82 ft 4 kts 49°
2026-05-01 15:24 14.51373 121.01534 82 ft 5 kts 24°
2026-05-01 15:24 14.51409 121.01555 82 ft 6 kts 47°
2026-05-01 15:24 14.51444 121.01594 82 ft 7 kts 44°
2026-05-01 15:24 14.51486 121.01636 82 ft 9 kts 44°
2026-05-01 15:25 14.51535 121.01685 82 ft 10 kts 44°
2026-05-01 15:25 14.51583 121.01734 82 ft 8 kts 46°
2026-05-01 15:25 14.51624 121.01777 82 ft 8 kts 38°
2026-05-01 15:25 14.51675 121.01786 82 ft 7 kts 348°
2026-05-01 15:26 14.51710 121.01762 82 ft 5 kts 318°
2026-05-01 15:26 14.51736 121.01736 82 ft 4 kts 315°
2026-05-01 15:26 14.51751 121.01712 82 ft 3 kts 272°
2026-05-01 15:26 14.51736 121.01693 82 ft 3 kts 220°
2026-05-01 15:27 14.51715 121.01673 82 ft 4 kts 225°
2026-05-01 15:27 14.51700 121.01656 82 ft 0 kts 226°